EDT,Max TemperatureF,Mean TemperatureF,Min TemperatureF,Max Dew PointF,MeanDew PointF,Min DewpointF,Max Humidity, Mean Humidity, Min Humidity, Max Sea Level PressureIn, Mean Sea Level PressureIn, Min Sea Level PressureIn, Max VisibilityMiles, Mean VisibilityMiles, Min VisibilityMiles, Max Wind SpeedMPH, Mean Wind SpeedMPH, Max Gust SpeedMPH,PrecipitationIn, CloudCover, Events, WindDirDegrees
2013-3-1,28,21,14,14,10,8,80,68,54,30.21,30.17,30.09,10,10,7,14,8,20,0.00,4,Snow,7
2013-3-2,25,18,11,15,9,5,79,71,60,30.19,30.14,30.07,10,10,10,12,5,16,0.00,4,Snow,339
2013-3-3,25,13,1,13,9,-3,90,75,56,30.08,30.06,30.02,10,10,10,9,5,17,0.00,0,Snow,335
2013-3-4,26,13,0,17,8,-4,90,75,60,30.15,30.12,30.07,10,10,10,9,2,,0.00,0,,276
2013-3-5,28,17,6,21,14,3,89,79,72,30.15,30.08,30.02,10,10,10,16,6,24,0.00,5,,59
2013-3-6,35,32,28,31,26,21,92,80,71,30.25,30.17,30.06,10,9,2,12,7,17,0.00,8,Snow,25
2013-3-7,28,26,23,23,19,16,83,74,64,30.42,30.35,30.25,10,10,10,10,6,,0.00,8,Snow,303
2013-3-8,35,26,18,27,22,15,93,83,65,30.49,30.43,30.37,10,10,10,9,1,,0.00,3,,240
2013-3-9,43,31,19,32,23,18,94,72,43,30.35,30.18,29.96,10,9,4,9,4,,0.00,3,Rain-Snow,104
2013-3-10,37,34,32,36,34,32,98,93,83,29.94,29.85,29.79,10,5,0,15,5,17,0.00,8,Fog-Rain,82
2013-3-11,47,40,32,44,35,32,97,95,87,29.80,29.55,29.42,10,5,0,17,9,25,0.00,8,Rain-Snow,66
2013-3-12,32,26,21,32,24,17,98,89,80,29.83,29.70,29.46,10,5,0,15,9,25,0.00,8,Snow,266
2013-3-13,28,22,17,19,15,12,89,72,50,30.17,29.99,29.82,10,7,1,21,6,29,0.00,5,Snow,299
2013-3-14,31,22,12,23,18,10,91,74,57,30.21,30.14,29.96,10,10,10,10,5,,0.00,2,Snow,255
2013-3-15,32,26,19,31,20,10,96,71,53,29.96,29.90,29.82,10,9,1,17,8,24,0.00,6,Snow,302
2013-3-16,23,19,15,14,10,5,86,70,48,30.00,29.96,29.90,10,8,2,14,5,20,0.00,6,Snow,20
2013-3-17,23,18,12,18,6,2,91,63,41,30.32,30.22,30.01,10,9,1,17,8,30,0.00,2,Snow,40
2013-3-18,37,24,12,28,17,6,95,75,47,30.21,29.85,29.48,10,8,0,21,10,29,0.00,3,Snow,72
2013-3-19,30,26,23,28,23,17,94,89,70,29.79,29.57,29.42,10,2,0,21,11,32,0.00,8,Snow,238
2013-3-20,25,22,20,22,16,12,91,76,66,29.84,29.80,29.78,10,7,0,15,10,26,0.00,8,Snow,268
2013-3-21,28,26,23,25,19,16,92,77,65,29.92,29.85,29.79,10,8,2,15,7,24,0.00,8,Snow,306
2013-3-22,34,26,18,25,21,14,89,77,60,30.04,29.95,29.90,10,10,10,13,4,17,0.00,7,,289
2013-3-23,34,28,23,29,25,20,90,81,65,30.10,30.07,30.03,10,10,10,12,3,18,0.00,7,,265
2013-3-24,34,30,25,24,21,16,87,69,49,30.09,29.97,29.84,10,10,10,14,6,20,0.00,4,,40
2013-3-25,37,33,29,27,24,22,79,70,54,29.98,29.87,29.83,10,10,5,15,11,20,0.00,8,Snow,20
2013-3-26,40,36,32,29,25,20,87,70,47,30.11,30.05,29.98,10,10,10,17,4,26,0.00,6,,324
2013-3-27,39,34,28,31,27,25,94,76,59,30.20,30.14,30.09,10,10,10,13,6,21,0.00,4,,272
2013-3-28,37,32,28,31,27,24,94,81,66,30.26,30.23,30.19,10,10,10,14,4,18,0.00,2,,247
2013-3-29,38,30,21,29,25,20,96,80,49,30.28,30.25,30.21,10,9,0,10,3,16,0.00,0,Fog,238
2013-3-30,47,34,22,35,23,17,92,63,34,30.21,30.04,29.79,10,10,3,14,1,25,0.00,3,Rain,233
2013-3-31,39,34,28,37,32,19,98,92,70,29.78,29.64,29.56,10,3,0,20,7,30,0.00,8,Fog-Rain-Snow,253